Location: Newark
(27.9675°N, 86.8869°E)
Time: 23:40:30
(UTC+00:00)

A-11 Canister half - Pass Details

Date: 01 November 2019
Orbit: 1527 x 1682 km, 47.3° (Epoch: 21 November)

Event Time Altitude Azimuth Distance (km) Brightness Sun altitude
Rises 15:15:20 0° 310° (NW) 4,718 12.1 -50.4°
Reaches altitude 10° 15:19:01 10° 322° (NW) 3,718 11.3 -51.2°
Enters shadow 15:21:45 19° 335° (NNW) 3,081 10.7 -51.8°
